Year,Month,Day,Hour,Minute,Value (Times are PST for temperature in C)
2016,08,18,00,00,21.60
2016,08,18,00,01,21.60
2016,08,18,00,02,21.50
2016,08,18,00,03,21.50
2016,08,18,00,04,21.50
2016,08,18,00,05,21.50
2016,08,18,00,06,21.40
2016,08,18,00,07,21.40
2016,08,18,00,08,21.40
2016,08,18,00,09,21.30
2016,08,18,00,10,21.20
2016,08,18,00,11,21.20
2016,08,18,00,12,21.30
2016,08,18,00,13,21.30
2016,08,18,00,14,21.40
2016,08,18,00,15,21.50
2016,08,18,00,16,21.50
2016,08,18,00,17,21.60
2016,08,18,00,18,21.60
2016,08,18,00,19,21.60
2016,08,18,00,20,21.60
2016,08,18,00,21,21.60
2016,08,18,00,22,21.70
2016,08,18,00,23,21.70
2016,08,18,00,24,21.70
2016,08,18,00,25,21.70
2016,08,18,00,26,21.70
2016,08,18,00,27,21.70
2016,08,18,00,28,21.60
2016,08,18,00,29,21.60
2016,08,18,00,30,21.50
2016,08,18,00,31,21.50
2016,08,18,00,32,21.50
2016,08,18,00,33,21.50
2016,08,18,00,34,21.40
2016,08,18,00,35,21.40
2016,08,18,00,36,21.40
2016,08,18,00,37,21.30
2016,08,18,00,38,21.40
2016,08,18,00,39,21.40
2016,08,18,00,40,21.50
2016,08,18,00,41,21.50
2016,08,18,00,42,21.50
2016,08,18,00,43,21.50
2016,08,18,00,44,21.60
2016,08,18,00,45,21.60
2016,08,18,00,46,21.60
2016,08,18,00,47,21.60
2016,08,18,00,48,21.60
2016,08,18,00,49,21.60
2016,08,18,00,50,21.60
2016,08,18,00,51,21.60
2016,08,18,00,52,21.60
2016,08,18,00,53,21.60
2016,08,18,00,54,21.60
2016,08,18,00,55,21.50
2016,08,18,00,56,21.50
2016,08,18,00,57,21.50
2016,08,18,00,58,21.50
2016,08,18,00,59,21.40
2016,08,18,01,00,21.40
2016,08,18,01,01,21.40
2016,08,18,01,02,21.40
2016,08,18,01,03,21.40
2016,08,18,01,04,21.40
2016,08,18,01,05,21.40
2016,08,18,01,06,21.40
2016,08,18,01,07,21.40
2016,08,18,01,08,21.40
2016,08,18,01,09,21.40
2016,08,18,01,10,21.40
2016,08,18,01,11,21.40
2016,08,18,01,12,21.30
2016,08,18,01,13,21.30
2016,08,18,01,14,21.30
2016,08,18,01,15,21.40
2016,08,18,01,16,21.40
2016,08,18,01,17,21.40
2016,08,18,01,18,21.40
2016,08,18,01,19,21.40
2016,08,18,01,20,21.40
2016,08,18,01,21,21.40
2016,08,18,01,22,21.40
2016,08,18,01,23,21.30
2016,08,18,01,24,21.30
2016,08,18,01,25,21.30
2016,08,18,01,26,21.30
2016,08,18,01,27,21.30
2016,08,18,01,28,21.30
2016,08,18,01,29,21.30
2016,08,18,01,30,21.30
2016,08,18,01,31,21.30
2016,08,18,01,32,21.20
2016,08,18,01,33,21.20
2016,08,18,01,34,21.20
2016,08,18,01,35,21.20
2016,08,18,01,36,21.20
2016,08,18,01,37,21.20
2016,08,18,01,38,21.20
2016,08,18,01,39,21.20
2016,08,18,01,40,21.20
2016,08,18,01,41,21.20
2016,08,18,01,42,21.20
2016,08,18,01,43,21.10
2016,08,18,01,44,21.10
2016,08,18,01,45,21.10
2016,08,18,01,46,21.10
2016,08,18,01,47,21.10
2016,08,18,01,48,21.10
2016,08,18,01,49,21.10
2016,08,18,01,50,21.10
2016,08,18,01,51,21.10
2016,08,18,01,52,21.00
2016,08,18,01,53,21.00
2016,08,18,01,54,20.90
2016,08,18,01,55,20.90
2016,08,18,01,56,20.90
2016,08,18,01,57,20.80
2016,08,18,01,58,20.80
2016,08,18,01,59,20.80
2016,08,18,02,00,20.80
2016,08,18,02,01,20.80
2016,08,18,02,02,20.80
2016,08,18,02,03,20.80
2016,08,18,02,04,20.80
2016,08,18,02,05,20.80
2016,08,18,02,06,20.80
2016,08,18,02,07,20.80
2016,08,18,02,08,20.80
2016,08,18,02,09,20.80
2016,08,18,02,10,20.80
2016,08,18,02,11,20.80
2016,08,18,02,12,20.80
2016,08,18,02,13,20.70
2016,08,18,02,14,20.70
2016,08,18,02,15,20.70
2016,08,18,02,16,20.70
2016,08,18,02,17,20.70
2016,08,18,02,18,20.70
2016,08,18,02,19,20.70
2016,08,18,02,20,20.70
2016,08,18,02,21,20.80
2016,08,18,02,22,20.80
2016,08,18,02,23,20.80
2016,08,18,02,24,20.80
2016,08,18,02,25,20.80
2016,08,18,02,26,20.80
2016,08,18,02,27,20.80
2016,08,18,02,28,20.90
2016,08,18,02,29,20.90
2016,08,18,02,30,20.90
2016,08,18,02,31,20.90
2016,08,18,02,32,20.90
2016,08,18,02,33,20.90
2016,08,18,02,34,20.90
2016,08,18,02,35,20.90
2016,08,18,02,36,20.90
2016,08,18,02,37,21.00
2016,08,18,02,38,21.10
2016,08,18,02,39,21.10
2016,08,18,02,40,21.10
2016,08,18,02,41,21.10
2016,08,18,02,42,21.20
2016,08,18,02,43,21.20
2016,08,18,02,44,21.20
2016,08,18,02,45,21.20
2016,08,18,02,46,21.20
2016,08,18,02,47,21.20
2016,08,18,02,48,21.20
2016,08,18,02,49,21.20
2016,08,18,02,50,21.20
2016,08,18,02,51,21.20
2016,08,18,02,52,21.20
2016,08,18,02,53,21.20
2016,08,18,02,54,21.20
2016,08,18,02,55,21.10
2016,08,18,02,56,21.10
2016,08,18,02,57,21.10
2016,08,18,02,58,21.20
2016,08,18,02,59,21.20
2016,08,18,03,00,21.30
2016,08,18,03,01,21.30
2016,08,18,03,02,21.30
2016,08,18,03,03,21.30
2016,08,18,03,04,21.30
2016,08,18,03,05,21.30
2016,08,18,03,06,21.30
2016,08,18,03,07,21.30
2016,08,18,03,08,21.30
2016,08,18,03,09,21.20
2016,08,18,03,10,21.20
2016,08,18,03,11,21.20
2016,08,18,03,12,21.20
2016,08,18,03,13,21.20
2016,08,18,03,14,21.20
2016,08,18,03,15,21.30
2016,08,18,03,16,21.30
2016,08,18,03,17,21.30
2016,08,18,03,18,21.30
2016,08,18,03,19,21.30
2016,08,18,03,20,21.30
2016,08,18,03,21,21.30
2016,08,18,03,22,21.30
2016,08,18,03,23,21.20
2016,08,18,03,24,21.20
2016,08,18,03,25,21.20
2016,08,18,03,26,21.20
2016,08,18,03,27,21.20
2016,08,18,03,28,21.20
2016,08,18,03,29,21.20
2016,08,18,03,30,21.30
2016,08,18,03,31,21.30
2016,08,18,03,32,21.30
2016,08,18,03,33,21.30
2016,08,18,03,34,21.30
2016,08,18,03,35,21.30
2016,08,18,03,36,21.30
2016,08,18,03,37,21.30
2016,08,18,03,38,21.20
2016,08,18,03,39,21.20
2016,08,18,03,40,21.10
2016,08,18,03,41,21.10
2016,08,18,03,42,21.10
2016,08,18,03,43,21.10
2016,08,18,03,44,21.10
2016,08,18,03,45,21.10
2016,08,18,03,46,21.10
2016,08,18,03,47,21.10
2016,08,18,03,48,21.20
2016,08,18,03,49,21.20
2016,08,18,03,50,21.30
2016,08,18,03,51,21.30
2016,08,18,03,52,21.30
2016,08,18,03,53,21.30
2016,08,18,03,54,21.30
2016,08,18,03,55,21.30
2016,08,18,03,56,21.20
2016,08,18,03,57,21.20
2016,08,18,03,58,21.20
2016,08,18,03,59,21.20
2016,08,18,04,00,21.20
2016,08,18,04,01,21.10
2016,08,18,04,02,21.20
2016,08,18,04,03,21.20
2016,08,18,04,04,21.20
2016,08,18,04,05,21.20
2016,08,18,04,06,21.30
2016,08,18,04,07,21.30
2016,08,18,04,08,21.30
2016,08,18,04,09,21.30
2016,08,18,04,10,21.30
2016,08,18,04,11,21.30
2016,08,18,04,12,21.40
2016,08,18,04,13,21.40
2016,08,18,04,14,21.30
2016,08,18,04,15,21.30
2016,08,18,04,16,21.40
2016,08,18,04,17,21.40
2016,08,18,04,18,21.40
2016,08,18,04,19,21.40
2016,08,18,04,20,21.30
2016,08,18,04,21,21.30
2016,08,18,04,22,21.20
2016,08,18,04,23,21.20
2016,08,18,04,24,21.20
2016,08,18,04,25,21.20
2016,08,18,04,26,21.20
2016,08,18,04,27,21.20
2016,08,18,04,28,21.20
2016,08,18,04,29,21.10
2016,08,18,04,30,20.90
2016,08,18,04,31,20.80
2016,08,18,04,32,20.60
2016,08,18,04,33,20.50
2016,08,18,04,34,20.30
2016,08,18,04,35,20.20
2016,08,18,04,36,20.10
2016,08,18,04,37,20.10
2016,08,18,04,38,20.10
2016,08,18,04,39,20.10
2016,08,18,04,40,20.20
2016,08,18,04,41,20.20
2016,08,18,04,42,20.20
2016,08,18,04,43,20.20
2016,08,18,04,44,20.20
2016,08,18,04,45,20.20
2016,08,18,04,46,20.10
2016,08,18,04,47,20.10
2016,08,18,04,48,20.10
2016,08,18,04,49,20.10
2016,08,18,04,50,20.10
2016,08,18,04,51,20.00
2016,08,18,04,52,20.00
2016,08,18,04,53,19.90
2016,08,18,04,54,19.80
2016,08,18,04,55,19.80
2016,08,18,04,56,19.80
2016,08,18,04,57,19.80
2016,08,18,04,58,19.70
2016,08,18,04,59,19.70
2016,08,18,05,00,19.70
2016,08,18,05,01,19.70
2016,08,18,05,02,19.70
2016,08,18,05,03,19.70
2016,08,18,05,04,19.60
2016,08,18,05,05,19.60
2016,08,18,05,06,19.60
2016,08,18,05,07,19.70
2016,08,18,05,08,19.70
2016,08,18,05,09,19.70
2016,08,18,05,10,19.80
2016,08,18,05,11,19.80
2016,08,18,05,12,19.80
2016,08,18,05,13,19.80
2016,08,18,05,14,19.80
2016,08,18,05,15,19.80
2016,08,18,05,16,19.70
2016,08,18,05,17,19.70
2016,08,18,05,18,19.80
2016,08,18,05,19,19.80
2016,08,18,05,20,19.80
2016,08,18,05,21,19.80
2016,08,18,05,22,19.80
2016,08,18,05,23,19.80
2016,08,18,05,24,19.80
2016,08,18,05,25,19.80
2016,08,18,05,26,19.80
2016,08,18,05,27,19.80
2016,08,18,05,28,19.80
2016,08,18,05,29,19.70
2016,08,18,05,30,19.70
2016,08,18,05,31,19.70
2016,08,18,05,32,19.70
2016,08,18,05,33,19.70
2016,08,18,05,34,19.70
2016,08,18,05,35,19.70
2016,08,18,05,36,19.70
2016,08,18,05,37,19.70
2016,08,18,05,38,19.80
2016,08,18,05,39,19.80
2016,08,18,05,40,19.80
2016,08,18,05,41,19.80
2016,08,18,05,42,19.80
2016,08,18,05,43,19.80
2016,08,18,05,44,19.80
2016,08,18,05,45,19.70
2016,08,18,05,46,19.70
2016,08,18,05,47,19.80
2016,08,18,05,48,19.80
2016,08,18,05,49,19.80
2016,08,18,05,50,19.80
2016,08,18,05,51,19.80
2016,08,18,05,52,19.80
2016,08,18,05,53,19.80
2016,08,18,05,54,19.80
2016,08,18,05,55,19.90
2016,08,18,05,56,19.80
2016,08,18,05,57,19.80
2016,08,18,05,58,19.80
2016,08,18,05,59,19.80
2016,08,18,06,00,19.90
2016,08,18,06,01,20.00
2016,08,18,06,02,20.00
2016,08,18,06,03,20.10
2016,08,18,06,04,20.20
2016,08,18,06,05,20.20
2016,08,18,06,06,20.20
2016,08,18,06,07,20.20
2016,08,18,06,08,20.20
2016,08,18,06,09,20.20
2016,08,18,06,10,20.20
2016,08,18,06,11,20.20
2016,08,18,06,12,20.20
2016,08,18,06,13,20.20
2016,08,18,06,14,20.20
2016,08,18,06,15,20.20
2016,08,18,06,16,20.10
2016,08,18,06,17,20.10
2016,08,18,06,18,20.10
2016,08,18,06,19,20.00
2016,08,18,06,20,20.00
2016,08,18,06,21,20.00
2016,08,18,06,22,19.90
2016,08,18,06,23,19.90
2016,08,18,06,24,19.80
2016,08,18,06,25,19.80
2016,08,18,06,26,19.70
2016,08,18,06,27,19.70
2016,08,18,06,28,19.60
2016,08,18,06,29,19.60
2016,08,18,06,30,19.60
2016,08,18,06,31,19.60
2016,08,18,06,32,19.60
2016,08,18,06,33,19.60
2016,08,18,06,34,19.60
2016,08,18,06,35,19.60
2016,08,18,06,36,19.60
2016,08,18,06,37,19.60
2016,08,18,06,38,19.60
2016,08,18,06,39,19.60
2016,08,18,06,40,19.50
2016,08,18,06,41,19.50
2016,08,18,06,42,19.50
2016,08,18,06,43,19.50
2016,08,18,06,44,19.40
2016,08,18,06,45,19.40
2016,08,18,06,46,19.30
2016,08,18,06,47,19.30
2016,08,18,06,48,19.30
2016,08,18,06,49,19.30
2016,08,18,06,50,19.40
2016,08,18,06,51,19.40
2016,08,18,06,52,19.40
2016,08,18,06,53,19.30
2016,08,18,06,54,19.30
2016,08,18,06,55,19.20
2016,08,18,06,56,19.20
2016,08,18,06,57,19.10
2016,08,18,06,58,19.10
2016,08,18,06,59,19.10
2016,08,18,07,00,19.10
2016,08,18,07,01,19.10
2016,08,18,07,02,19.10
2016,08,18,07,03,19.10
2016,08,18,07,04,19.20
2016,08,18,07,05,19.30
2016,08,18,07,06,19.20
2016,08,18,07,07,19.30
2016,08,18,07,08,19.30
2016,08,18,07,09,19.30
2016,08,18,07,10,19.30
2016,08,18,07,11,19.30
2016,08,18,07,12,19.20
2016,08,18,07,13,19.20
2016,08,18,07,14,19.20
2016,08,18,07,15,19.20
2016,08,18,07,16,19.20
2016,08,18,07,17,19.20
2016,08,18,07,18,19.20
2016,08,18,07,19,19.30
2016,08,18,07,20,19.30
2016,08,18,07,21,19.40
2016,08,18,07,22,19.40
2016,08,18,07,23,19.40
2016,08,18,07,24,19.40
2016,08,18,07,25,19.40
2016,08,18,07,26,19.40
2016,08,18,07,27,19.40
2016,08,18,07,28,19.50
2016,08,18,07,29,19.60
2016,08,18,07,30,19.60
2016,08,18,07,31,19.50
2016,08,18,07,32,19.50
2016,08,18,07,33,19.50
2016,08,18,07,34,19.50
2016,08,18,07,35,19.60
2016,08,18,07,36,19.50
2016,08,18,07,37,19.50
2016,08,18,07,38,19.40
2016,08,18,07,39,19.40
2016,08,18,07,40,19.50
2016,08,18,07,41,19.50
2016,08,18,07,42,19.60
2016,08,18,07,43,19.60
2016,08,18,07,44,19.70
2016,08,18,07,45,19.70
2016,08,18,07,46,19.70
2016,08,18,07,47,19.60
2016,08,18,07,48,19.50
2016,08,18,07,49,19.60
2016,08,18,07,50,19.60
2016,08,18,07,51,19.70
2016,08,18,07,52,19.70
2016,08,18,07,53,19.80
2016,08,18,07,54,19.80
2016,08,18,07,55,19.80
2016,08,18,07,56,19.80
2016,08,18,07,57,19.70
2016,08,18,07,58,19.60
2016,08,18,07,59,19.60
2016,08,18,08,00,19.60
2016,08,18,08,01,19.60
2016,08,18,08,02,19.60
2016,08,18,08,03,19.70
2016,08,18,08,04,19.60
2016,08,18,08,05,19.60
2016,08,18,08,06,19.60
2016,08,18,08,07,19.60
2016,08,18,08,08,19.60
2016,08,18,08,09,19.60
2016,08,18,08,10,19.60
2016,08,18,08,11,19.60
2016,08,18,08,12,19.60
2016,08,18,08,13,19.70
2016,08,18,08,14,19.70
2016,08,18,08,15,19.80
2016,08,18,08,16,19.80
2016,08,18,08,17,19.80
2016,08,18,08,18,19.80
2016,08,18,08,19,19.70
2016,08,18,08,20,19.70
2016,08,18,08,21,19.70
2016,08,18,08,22,19.80
2016,08,18,08,23,19.80
2016,08,18,08,24,19.90
2016,08,18,08,25,19.90
2016,08,18,08,26,19.80
2016,08,18,08,27,19.80
2016,08,18,08,28,19.80
2016,08,18,08,29,19.80
2016,08,18,08,30,19.80
2016,08,18,08,31,19.80
2016,08,18,08,32,19.90
2016,08,18,08,33,19.90
2016,08,18,08,34,20.00
2016,08,18,08,35,20.10
2016,08,18,08,36,20.10
2016,08,18,08,37,20.20
2016,08,18,08,38,20.30
2016,08,18,08,39,20.30
2016,08,18,08,40,20.30
2016,08,18,08,41,20.40
2016,08,18,08,42,20.50
2016,08,18,08,43,20.60
2016,08,18,08,44,20.70
2016,08,18,08,45,20.70
2016,08,18,08,46,20.70
2016,08,18,08,47,20.80
2016,08,18,08,48,20.80
2016,08,18,08,49,20.90
2016,08,18,08,50,20.90
2016,08,18,08,51,20.90
2016,08,18,08,52,20.80
2016,08,18,08,53,20.80
2016,08,18,08,54,20.80
2016,08,18,08,55,20.80
2016,08,18,08,56,20.80
2016,08,18,08,57,20.80
2016,08,18,08,58,20.80
2016,08,18,08,59,20.80
2016,08,18,09,00,20.80
2016,08,18,09,01,20.70
2016,08,18,09,02,20.70
2016,08,18,09,03,20.70
2016,08,18,09,04,20.80
2016,08,18,09,05,20.80
2016,08,18,09,06,20.80
2016,08,18,09,07,20.80
2016,08,18,09,08,20.80
2016,08,18,09,09,20.90
2016,08,18,09,10,20.80
2016,08,18,09,11,20.80
2016,08,18,09,12,20.80
2016,08,18,09,13,20.90
2016,08,18,09,14,21.00
2016,08,18,09,15,21.10
2016,08,18,09,16,21.10
2016,08,18,09,17,21.10
2016,08,18,09,18,21.10
2016,08,18,09,19,21.10
2016,08,18,09,20,21.00
2016,08,18,09,21,21.10
2016,08,18,09,22,21.10
2016,08,18,09,23,21.20
2016,08,18,09,24,21.20
2016,08,18,09,25,21.30
2016,08,18,09,26,21.30
2016,08,18,09,27,21.40
2016,08,18,09,28,21.50
2016,08,18,09,29,21.50
2016,08,18,09,30,21.50
2016,08,18,09,31,21.50
2016,08,18,09,32,21.50
2016,08,18,09,33,21.50
2016,08,18,09,34,21.60
2016,08,18,09,35,21.60
2016,08,18,09,36,21.60
2016,08,18,09,37,21.60
2016,08,18,09,38,21.60
2016,08,18,09,39,21.60
2016,08,18,09,40,21.60
2016,08,18,09,41,21.70
2016,08,18,09,42,21.70
2016,08,18,09,43,21.80
2016,08,18,09,44,21.80
2016,08,18,09,45,21.80
2016,08,18,09,46,21.80
2016,08,18,09,47,21.90
2016,08,18,09,48,22.00
2016,08,18,09,49,22.10
2016,08,18,09,50,22.20
2016,08,18,09,51,22.30
2016,08,18,09,52,22.40
2016,08,18,09,53,22.40
2016,08,18,09,54,22.40
2016,08,18,09,55,22.40
2016,08,18,09,56,22.50
2016,08,18,09,57,22.50
2016,08,18,09,58,22.60
2016,08,18,09,59,22.60
2016,08,18,10,00,22.60
2016,08,18,10,01,22.70
2016,08,18,10,02,22.80
2016,08,18,10,03,22.90
2016,08,18,10,04,23.00
2016,08,18,10,05,23.10
2016,08,18,10,06,23.10
2016,08,18,10,07,23.20
2016,08,18,10,08,23.20
2016,08,18,10,09,23.20
2016,08,18,10,10,23.30
2016,08,18,10,11,23.30
2016,08,18,10,12,23.40
2016,08,18,10,13,23.40
2016,08,18,10,14,23.50
2016,08,18,10,15,23.60
2016,08,18,10,16,23.70
2016,08,18,10,17,23.80
2016,08,18,10,18,23.80
2016,08,18,10,19,23.90
2016,08,18,10,20,23.90
2016,08,18,10,21,24.00
2016,08,18,10,22,24.10
2016,08,18,10,23,24.10
2016,08,18,10,24,24.10
2016,08,18,10,25,24.10
2016,08,18,10,26,24.20
2016,08,18,10,27,24.20
2016,08,18,10,28,24.30
2016,08,18,10,29,24.40
2016,08,18,10,30,24.40
2016,08,18,10,31,24.40
2016,08,18,10,32,24.50
2016,08,18,10,33,24.50
2016,08,18,10,34,24.60
2016,08,18,10,35,24.60
2016,08,18,10,36,24.60
2016,08,18,10,37,24.70
2016,08,18,10,38,24.70
2016,08,18,10,39,24.70
2016,08,18,10,40,24.70
2016,08,18,10,41,24.80
2016,08,18,10,42,24.80
2016,08,18,10,43,24.90
2016,08,18,10,44,24.90
2016,08,18,10,45,25.00
2016,08,18,10,46,25.00
2016,08,18,10,47,25.00
2016,08,18,10,48,25.10
2016,08,18,10,49,25.10
2016,08,18,10,50,25.10
2016,08,18,10,51,25.20
2016,08,18,10,52,25.30
2016,08,18,10,53,25.30
2016,08,18,10,54,25.30
2016,08,18,10,55,25.40
2016,08,18,10,56,25.40
2016,08,18,10,57,25.50
2016,08,18,10,58,25.50
2016,08,18,10,59,25.60
2016,08,18,11,00,25.60
2016,08,18,11,01,25.60
2016,08,18,11,02,25.60
2016,08,18,11,03,25.70
2016,08,18,11,04,25.70
2016,08,18,11,05,25.80
2016,08,18,11,06,25.80
2016,08,18,11,07,25.90
2016,08,18,11,08,25.90
2016,08,18,11,09,26.00
2016,08,18,11,10,26.00
2016,08,18,11,11,26.10
2016,08,18,11,12,26.10
2016,08,18,11,13,26.10
2016,08,18,11,14,26.20
2016,08,18,11,15,26.20
2016,08,18,11,16,26.20
2016,08,18,11,17,26.20
2016,08,18,11,18,26.30
2016,08,18,11,19,26.30
2016,08,18,11,20,26.40
2016,08,18,11,21,26.40
2016,08,18,11,22,26.40
2016,08,18,11,23,26.40
2016,08,18,11,24,26.50
2016,08,18,11,25,26.50
2016,08,18,11,26,26.60
2016,08,18,11,27,26.60
2016,08,18,11,28,26.70
2016,08,18,11,29,26.70
2016,08,18,11,30,26.80
2016,08,18,11,31,26.80
2016,08,18,11,32,26.80
2016,08,18,11,33,26.80
2016,08,18,11,34,26.80
2016,08,18,11,35,26.80
2016,08,18,11,36,26.90
2016,08,18,11,37,26.90
2016,08,18,11,38,27.00
2016,08,18,11,39,27.10
2016,08,18,11,40,27.10
2016,08,18,11,41,27.10
2016,08,18,11,42,27.10
2016,08,18,11,43,27.20
2016,08,18,11,44,27.20
2016,08,18,11,45,27.20
2016,08,18,11,46,27.20
2016,08,18,11,47,27.20
2016,08,18,11,48,27.30
2016,08,18,11,49,27.40
2016,08,18,11,50,27.40
2016,08,18,11,51,27.50
2016,08,18,11,52,27.50
2016,08,18,11,53,27.50
2016,08,18,11,54,27.60
2016,08,18,11,55,27.60
2016,08,18,11,56,27.70
2016,08,18,11,57,27.80
2016,08,18,11,58,27.80
2016,08,18,11,59,27.90
2016,08,18,12,00,27.90
2016,08,18,12,01,28.00
2016,08,18,12,02,28.00
2016,08,18,12,03,28.00
2016,08,18,12,04,28.10
2016,08,18,12,05,28.20
2016,08,18,12,06,28.20
2016,08,18,12,07,28.30
2016,08,18,12,08,28.30
2016,08,18,12,09,28.30
2016,08,18,12,10,28.30
2016,08,18,12,11,28.30
2016,08,18,12,12,28.40
2016,08,18,12,13,28.40
2016,08,18,12,14,28.50
2016,08,18,12,15,28.60
2016,08,18,12,16,28.70
2016,08,18,12,17,28.80
2016,08,18,12,18,28.80
2016,08,18,12,19,28.80
2016,08,18,12,20,28.80
2016,08,18,12,21,28.80
2016,08,18,12,22,28.90
2016,08,18,12,23,29.00
2016,08,18,12,24,29.10
2016,08,18,12,25,29.20
2016,08,18,12,26,29.20
2016,08,18,12,27,29.20
2016,08,18,12,28,29.30
2016,08,18,12,29,29.50
2016,08,18,12,30,29.50
2016,08,18,12,31,29.60
2016,08,18,12,32,29.60
2016,08,18,12,33,29.60
2016,08,18,12,34,29.60
2016,08,18,12,35,29.60
2016,08,18,12,36,29.70
2016,08,18,12,37,29.70
2016,08,18,12,38,29.70
2016,08,18,12,39,29.70
2016,08,18,12,40,29.70
2016,08,18,12,41,29.80
2016,08,18,12,42,29.80
2016,08,18,12,43,29.80
2016,08,18,12,44,29.80
2016,08,18,12,45,29.80
2016,08,18,12,46,29.80
2016,08,18,12,47,29.80
2016,08,18,12,48,29.90
2016,08,18,12,49,30.00
2016,08,18,12,50,30.10
2016,08,18,12,51,30.10
2016,08,18,12,52,30.10
2016,08,18,12,53,30.10
2016,08,18,12,54,30.20
2016,08,18,12,55,30.20
2016,08,18,12,56,30.20
2016,08,18,12,57,30.20
2016,08,18,12,58,30.20
2016,08,18,12,59,30.20
2016,08,18,13,00,30.20
2016,08,18,13,01,30.10
2016,08,18,13,02,30.10
2016,08,18,13,03,30.20
2016,08,18,13,04,30.20
2016,08,18,13,05,30.30
2016,08,18,13,06,30.30
2016,08,18,13,07,30.40
2016,08,18,13,08,30.40
2016,08,18,13,09,30.40
2016,08,18,13,10,30.40
2016,08,18,13,11,30.50
2016,08,18,13,12,30.50
2016,08,18,13,13,30.50
2016,08,18,13,14,30.50
2016,08,18,13,15,30.60
2016,08,18,13,16,30.70
2016,08,18,13,17,30.70
2016,08,18,13,18,30.60
2016,08,18,13,19,30.60
2016,08,18,13,20,30.60
2016,08,18,13,21,30.60
2016,08,18,13,22,30.70
2016,08,18,13,23,30.70
2016,08,18,13,24,30.70
2016,08,18,13,25,30.70
2016,08,18,13,26,30.80
2016,08,18,13,27,30.80
2016,08,18,13,28,30.80
2016,08,18,13,29,30.70
2016,08,18,13,30,30.70
2016,08,18,13,31,30.70
2016,08,18,13,32,30.70
2016,08,18,13,33,30.70
2016,08,18,13,34,30.70
2016,08,18,13,35,30.60
2016,08,18,13,36,30.60
2016,08,18,13,37,30.50
2016,08,18,13,38,30.50
2016,08,18,13,39,30.60
2016,08,18,13,40,30.60
2016,08,18,13,41,30.60
2016,08,18,13,42,30.60
2016,08,18,13,43,30.60
2016,08,18,13,44,30.60
2016,08,18,13,45,30.60
2016,08,18,13,46,30.60
2016,08,18,13,47,30.60
2016,08,18,13,48,30.60
2016,08,18,13,49,30.70
2016,08,18,13,50,30.70
2016,08,18,13,51,30.80
2016,08,18,13,52,30.80
2016,08,18,13,53,30.70
2016,08,18,13,54,30.80
2016,08,18,13,55,30.80
2016,08,18,13,56,31.00
2016,08,18,13,57,31.00
2016,08,18,13,58,31.00
2016,08,18,13,59,31.00
2016,08,18,14,00,31.00
2016,08,18,14,01,31.00
2016,08,18,14,02,31.00
2016,08,18,14,03,31.00
2016,08,18,14,04,31.00
2016,08,18,14,05,31.00
2016,08,18,14,06,31.10
2016,08,18,14,07,31.20
2016,08,18,14,08,31.20
2016,08,18,14,09,31.10
2016,08,18,14,10,31.10
2016,08,18,14,11,31.10
2016,08,18,14,12,31.10
2016,08,18,14,13,31.20
2016,08,18,14,14,31.10
2016,08,18,14,15,31.10
2016,08,18,14,16,31.10
2016,08,18,14,17,31.10
2016,08,18,14,18,31.10
2016,08,18,14,19,31.10
2016,08,18,14,20,31.20
2016,08,18,14,21,31.20
2016,08,18,14,22,31.30
2016,08,18,14,23,31.30
2016,08,18,14,24,31.30
2016,08,18,14,25,31.30
2016,08,18,14,26,31.30
2016,08,18,14,27,31.30
2016,08,18,14,28,31.30
2016,08,18,14,29,31.40
2016,08,18,14,30,31.50
2016,08,18,14,31,31.50
2016,08,18,14,32,31.60
2016,08,18,14,33,31.60
2016,08,18,14,34,31.60
2016,08,18,14,35,31.60
2016,08,18,14,36,31.60
2016,08,18,14,37,31.60
2016,08,18,14,38,31.70
2016,08,18,14,39,31.80
2016,08,18,14,40,31.80
2016,08,18,14,41,31.80
2016,08,18,14,42,31.70
2016,08,18,14,43,31.70
2016,08,18,14,44,31.70
2016,08,18,14,45,31.70
2016,08,18,14,46,31.70
2016,08,18,14,47,31.70
2016,08,18,14,48,31.60
2016,08,18,14,49,31.60
2016,08,18,14,50,31.60
2016,08,18,14,51,31.60
2016,08,18,14,52,31.60
2016,08,18,14,53,31.70
2016,08,18,14,54,31.70
2016,08,18,14,55,31.70
2016,08,18,14,56,31.70
2016,08,18,14,57,31.70
2016,08,18,14,58,31.70
2016,08,18,14,59,31.70
2016,08,18,15,00,31.70
2016,08,18,15,01,31.70
2016,08,18,15,02,31.70
2016,08,18,15,03,31.80
2016,08,18,15,04,31.80
2016,08,18,15,05,31.80
2016,08,18,15,06,31.90
2016,08,18,15,07,31.90
2016,08,18,15,08,31.90
2016,08,18,15,09,31.90
2016,08,18,15,10,31.90
2016,08,18,15,11,31.90
2016,08,18,15,12,31.90
2016,08,18,15,13,31.80
2016,08,18,15,14,31.90
2016,08,18,15,15,31.90
2016,08,18,15,16,32.00
2016,08,18,15,17,32.00
2016,08,18,15,18,32.10
2016,08,18,15,19,32.10
2016,08,18,15,20,32.10
2016,08,18,15,21,32.10
2016,08,18,15,22,32.10
2016,08,18,15,23,32.20
2016,08,18,15,24,32.10
2016,08,18,15,25,32.10
2016,08,18,15,26,32.10
2016,08,18,15,27,32.10
2016,08,18,15,28,32.10
2016,08,18,15,29,32.10
2016,08,18,15,30,32.10
2016,08,18,15,31,32.10
2016,08,18,15,32,32.10
2016,08,18,15,33,32.10
2016,08,18,15,34,32.20
2016,08,18,15,35,32.20
2016,08,18,15,36,32.30
2016,08,18,15,37,32.30
2016,08,18,15,38,32.30
2016,08,18,15,39,32.40
2016,08,18,15,40,32.40
2016,08,18,15,41,32.40
2016,08,18,15,42,32.40
2016,08,18,15,43,32.40
2016,08,18,15,44,32.40
2016,08,18,15,45,32.40
2016,08,18,15,46,32.40
2016,08,18,15,47,32.40
2016,08,18,15,48,32.50
2016,08,18,15,49,32.50
2016,08,18,15,50,32.60
2016,08,18,15,51,32.60
2016,08,18,15,52,32.60
2016,08,18,15,53,32.60
2016,08,18,15,54,32.60
2016,08,18,15,55,32.70
2016,08,18,15,56,32.70
2016,08,18,15,57,32.60
2016,08,18,15,58,32.70
2016,08,18,15,59,32.60
2016,08,18,16,00,32.60
2016,08,18,16,01,32.60
2016,08,18,16,02,32.60
2016,08,18,16,03,32.60
2016,08,18,16,04,32.60
2016,08,18,16,05,32.50
2016,08,18,16,06,32.50
2016,08,18,16,07,32.40
2016,08,18,16,08,32.50
2016,08,18,16,09,32.60
2016,08,18,16,10,32.60
2016,08,18,16,11,32.60
2016,08,18,16,12,32.70
2016,08,18,16,13,32.70
2016,08,18,16,14,32.60
2016,08,18,16,15,32.60
2016,08,18,16,16,32.60
2016,08,18,16,17,32.60
2016,08,18,16,18,32.60
2016,08,18,16,19,32.60
2016,08,18,16,20,32.60
2016,08,18,16,21,32.60
2016,08,18,16,22,32.60
2016,08,18,16,23,32.70
2016,08,18,16,24,32.70
2016,08,18,16,25,32.70
2016,08,18,16,26,32.70
2016,08,18,16,27,32.70
2016,08,18,16,28,32.70
2016,08,18,16,29,32.60
2016,08,18,16,30,32.60
2016,08,18,16,31,32.60
2016,08,18,16,32,32.60
2016,08,18,16,33,32.60
2016,08,18,16,34,32.60
2016,08,18,16,35,32.60
2016,08,18,16,36,32.60
2016,08,18,16,37,32.60
2016,08,18,16,38,32.60
2016,08,18,16,39,32.60
2016,08,18,16,40,32.60
2016,08,18,16,41,32.60
2016,08,18,16,42,32.60
2016,08,18,16,43,32.60
2016,08,18,16,44,32.50
2016,08,18,16,45,32.50
2016,08,18,16,46,32.50
2016,08,18,16,47,32.40
2016,08,18,16,48,32.40
2016,08,18,16,49,32.40
2016,08,18,16,50,32.40
2016,08,18,16,51,32.40
2016,08,18,16,52,32.30
2016,08,18,16,53,32.30
2016,08,18,16,54,32.30
2016,08,18,16,55,32.30
2016,08,18,16,56,32.30
2016,08,18,16,57,32.30
2016,08,18,16,58,32.30
2016,08,18,16,59,32.20
2016,08,18,17,00,32.20
2016,08,18,17,01,32.20
2016,08,18,17,02,32.20
2016,08,18,17,03,32.30
2016,08,18,17,04,32.30
2016,08,18,17,05,32.30
2016,08,18,17,06,32.30
2016,08,18,17,07,32.30
2016,08,18,17,08,32.30
2016,08,18,17,09,32.30
2016,08,18,17,10,32.30
2016,08,18,17,11,32.20
2016,08,18,17,12,32.20
2016,08,18,17,13,32.20
2016,08,18,17,14,32.30
2016,08,18,17,15,32.30
2016,08,18,17,16,32.30
2016,08,18,17,17,32.30
2016,08,18,17,18,32.30
2016,08,18,17,19,32.30